www.pogodaiklimat.ru

Погода и климат >> Архив погоды >> Антарктида >> Mawson


ПОГОДА в Mawson

  • Прогноз погоды в Mawson
  • Монитор погоды в Mawson
  • Климат города

АРХИВ ПОГОДЫ в Mawson

Время (UTC), дата Ветер
(напр.,м/с)
 
Видим.   Явления Облачность Т
(С)
Тd
(С)
f
(%)
Тe
(С)
Тes
(С)
Комфортность P
(гПа)
Po
(гПа)
Тmin
(С)
Tmax
(С)
R
(мм)
R24
(мм)
S
(см)
00 11.01 В 8 н/о н/о -0.6 -7.6 59 -8 -8 988.6 986.6
03 11.01 В 9 25 км осадки на расстоянии 10/4 600 м
[Sc Ac As]
-0.6 -6.8 63 -8 -8 988.6 986.6 -2.1
06 11.01 В 9 25 км осадки на расстоянии 10/4 600 м
[Sc Ac As]
-0.5 -5.3 70 -8 -8 989.3 987.3
09 11.01 В 7 25 км осадки на расстоянии 10/4 600 м
[Sc As op]
+0.1 -5.3 67 -7 -6 989.4 987.4
12 11.01 В 8 30 км 10/1 600 м
[Sc Ac As]
+0.1 -4.0 74 -7 -7 989.9 987.9
15 11.01 В 7 н/о н/о -0.1 -5.1 69 -7 -7 989.8 987.8 +1.9
18 11.01 В 7 н/о н/о -0.7 -4.6 75 -8 -8 990.4 988.4
21 11.01 ЮВ 11 н/о н/о -2.9 -8.5 65 -12 -12 990.0 988.0
00 12.01 ЮВ 14 н/о н/о +0.4 -4.8 68 -8 -8 988.9 986.9
03 12.01 ЮВ 15 28 км осадки на расстоянии 10/0 2000 м
[Ac As]
+1.2 -5.0 63 -7 -7 989.2 987.2 -3.5
06 12.01 ЮВ 16 30 км осадки на расстоянии 10/4 1000 м
[Sc Ac As]
+2.5 -5.6 55 -6 -6 988.1 986.1
09 12.01 ЮВ 14 30 км осадки на расстоянии 10/1 1000 м
[Sc Ac As]
+3.5 -4.7 55 -4 -4 987.2 985.2
12 12.01 ЮВ 9 35 км осадки на расстоянии 9/1 1000 м
[Sc Ac As]
+4.3 -3.2 58 -2 -2 986.6 984.6
15 12.01 ЮВ 13 н/о н/о +3.4 -5.0 54 -4 -4 985.6 983.6 +4.9
18 12.01 ЮВ 18 н/о н/о +4.4 -9.0 37 -3 -3 983.6 981.6
21 12.01 ЮВ 17 н/о н/о +3.2 -8.1 43 -5 -5 983.1 981.1
00 13.01 ЮВ 14 н/о н/о -0.3 -9.4 50 -9 -9 982.8 980.8
03 13.01 Ю 15 40 км 1/0
[Ci fib]
+1.7 -8.9 45 -6 -6 982.2 980.2 -0.6
06 13.01 ЮВ 13 40 км 1/0
[Ci fib]
+3.5 -7.0 46 -4 -4 982.2 980.2
09 13.01 ЮЗ 3 40 км 1/0
[Ci fib]
+3.7 -5.5 51 +1 +9 опасность
простуды
982.1 980.1
12 13.01 ЮЗ 3 40 км 1/0
[Ci]
+4.7 -6.8 43 +2 +7 981.1 979.1
15 13.01 ЮЗ 2 н/о н/о +5.1 -6.1 44 +4 +4 979.2 977.2 +5.5
18 13.01 ЮВ 11 н/о н/о +1.8 -8.6 46 -5 -5 976.9 975.0
21 13.01 Ю 15 н/о н/о -3.3 -11.3 54 -13 -13 975.2 973.3
00 14.01 ЮВ 13 н/о н/о -4.1 -11.8 55 -14 -14 973.7 971.8
03 14.01 ЮВ 10 40 км 1/0
[Ci fib]
-0.5 -10.9 45 -8 -8 972.1 970.2 -4.5
06 14.01 В 4 40 км 1/0
[Ci fib]
+1.7 -9.5 43 -3 +4 971.1 969.2
09 14.01 З 3 40 км 1/0
[Ci fib]
+1.1 -7.4 53 -3 +5 971.5 969.6
12 14.01 ЮЗ 3 40 км 1/0
[Ci fib]
+1.7 -8.7 46 -2 +2 971.9 970.0
15 14.01 ЮВ 4 н/о н/о +1.8 -5.1 60 -2 -2 972.3 970.4 +6.0
18 14.01 ЮВ 7 н/о н/о -1.1 -7.2 63 -8 -8 973.1 971.2
21 14.01 ЮВ 10 н/о н/о -2.9 -10.2 57 -11 -11 974.2 972.3
00 15.01 ЮВ 11 н/о н/о -2.7 -13.2 44 -11 -11 975.1 973.2
03 15.01 ЮВ 16 40 км 1/0
[Ci fib]
-3.0 -12.7 47 -13 -13 975.4 973.5 -4.3
06 15.01 В 9 40 км 3/0
[Ci fib]
+0.2 -10.0 46 -7 -6 977.2 975.2
09 15.01 В 11 40 км 4/1 1500 м
[Sc Cs]
+1.2 -8.0 50 -6 -6 979.0 977.0
12 15.01 СВ 3 40 км 5/1 1500 м
[Sc Cs]
+1.2 -5.3 62 -3 +1 981.9 979.9
15 15.01 В 2 н/о н/о +0.2 -4.2 72 -3 -3 984.6 982.6 +2.9
18 15.01 ЮВ 9 н/о н/о -1.9 -9.5 56 -10 -10 986.7 984.7
21 15.01 ЮВ 8 н/о н/о -3.5 -9.7 62 -11 -11 988.8 986.8
00 16.01 ЮВ 10 н/о н/о -2.6 -11.8 49 -11 -11 989.0 987.0
03 16.01 ЮВ 13 40 км 1/1 1500 м
[Sc Ci fib]
-2.5 -12.2 47 -12 -12 988.8 986.8 -4.4
06 16.01 ЮВ 14 40 км 5/1 1500 м
[Sc Cs]
-0.1 -9.8 48 -9 -9 986.2 984.2
09 16.01 В 10 30 км 10/1 1500 м
[Sc Cs]
+0.2 -6.2 62 -8 -7 985.1 983.1
12 16.01 В 9 30 км 10/1 1500 м
[Sc As op Cs]
-0.4 -5.6 68 -8 -8 982.4 980.4
15 16.01 В 12 н/о н/о -1.4 -4.6 79 -11 -11 980.6 978.6 +1.8
18 16.01 В 14 н/о н/о -2.5 -6.3 75 -12 -12 978.7 976.7
21 16.01 ЮВ 14 н/о н/о -2.8 -7.1 72 -13 -13 977.3 975.3
00 17.01 ЮВ 17 н/о н/о -2.7 -7.6 69 -13 -13 975.7 973.8
03 17.01 ЮВ 20 25 км осадки на расстоянии 10/3 1500 м
[Sc Ac As]
-2.6 -7.9 67 -14 -14 975.0 973.1 -4.3
06 17.01 ЮВ 16 25 км осадки на расстоянии 10/1 1500 м
[Sc Ac As]
-1.8 -8.5 60 -12 -12 975.3 973.4
09 17.01 ЮВ 13 30 км осадки на расстоянии 10/0
[Ac As]
-0.4 -8.3 55 -9 -9 975.4 973.5
12 17.01 ЮВ 9 30 км 10/1 1500 м
[Sc Ac As]
0.0 -7.9 55 -7 -7 975.6 973.7
15 17.01 ЮВ 8 н/о н/о -0.5 -7.5 59 -8 -8 975.6 973.7 +0.1
18 17.01 ЮВ 9 н/о н/о -0.9 -9.3 53 -8 -8 975.3 973.4
21 17.01 Ю 10 н/о н/о -3.4 -10.7 57 -12 -12 975.1 973.2

 

Местоположение метеостанции Mawson (Антарктида): широта -67.60 долгота 62.87 высота над уровнем моря 16 м.

В архиве по умолчанию представлена погода в Mawson за последнюю неделю. Архивные данные за месяц целиком и за предыдущие месяцы, начиная с января 2011 года, Вы можете получить, выбрав интересующий диапазон дат из раскрывающегося списка и нажав кнопку "Ввод!".

Внимание! Время в таблицах - всемирное. Для получения местного времени необходимо прибавить поправку, которая в Mawson равна 0 ч.

Смотрите также архив погоды в соседних городах и на ближайших метеорологических станциях:

Погода в Amery Ice Shelf (Антарктида) (459 км)
Погода в Druzhnaya-4 (Антарктида) (497 км)
Погода в Bharati (Антарктида) (578 км)
Погода в Zhongshan (Антарктида) (583 км)
Погода в Progress (Антарктида) (584 км)
Погода в Davis (Антарктида) (634 км)
Погода в Davis (Whoop Whoop) (Антарктида) (669 км)
Погода в Molodezhnaya (Антарктида) (718 км)
Погода в Relay Station (Антарктида) (1007 км)
Погода в Dome Plateau Eagle (Антарктида) (1087 км)

Пояснения к столбцам:

Ветер - указаны скорость ветра в м/с - средняя за 10 мин, порывы в срок и между сроками (в фигурных скобках) и направление, откуда дует ветер: С - северный, СВ - северо-восточный, В - восточный, ЮВ - юго-восточный, Ю - южный, ЮЗ - юго-западный, З - западный, СЗ - северо-западный.
Видимость - горизонтальная дальность видимости в метрах или километрах. При видимости от 1 до 10 км при отсутствии осадков обычно наблюдается дымка, при ухудшении видимости до 1 км и менее - туман. В сухую погоду видимость может ухудшаться дымом, пылью или мглою.
Явления - указаны атмосферные явления, наблюдавшиеся в срок или в последний час перед сроком; фигурными скобками обозначены явления, наблюдавшиеся между сроками (за 1-3 часа до срока); квадратными скобками обозначены град или гололедные отложения с указанием их диаметра в мм.
Облачность - указаны через наклонную черту общая и нижняя облачность в баллах и высота нижней границы облаков в метрах; квадратными скобками обозначены формы облаков: Ci - перистые, Cs - перисто-слоистые, Cc - перисто-кучевые, Ac - высококучевые, As - высокослоистые, Sc - слоисто-кучевые, Ns - слоисто-дождевые, Cu - кучевые, Cb - кучево-дождевые. Подробнее классификацию облаков см. в Атласе облаков (PDF).
T - Температура воздуха - температура, измеренная на высоте 2 м над землей.
Td - Температура точки росы - температура, при понижении до которой содержащийся в воздухе водяной пар достигнет насыщения.
f - Относительная влажность воздуха - влажноcть воздуха, измеренная на высоте 2 м над землей.
Te - Эффективная температура - температура, которую ощущает одетый по сезону человек в тени. Характеристика душности погоды. При расчете учитывается влияние влажности воздуха и скорости ветра на теплоощущения человека.
Tes - Эффективная температура на солнце - температура, которую ощущает человек, с поправкой на солнечный нагрев. Характеристика знойности погоды. Зависит от высоты солнца над горизонтом, облачности и скорости ветра. Ночью, в пасмурную погоду, а также при ветре 12 м/с и более поправка равна нулю.
P - Атмосферное давление - приведенное к уровню моря атмосферное давление.
Po - Атмосферное давление - измеренное на уровне метеостанции атмосферное давление.
Tmin - Минимальная температура - минимум температуры воздуха на высоте 2 м над землей.
Tmax - Максимальная температура - максимум температуры воздуха на высоте 2 м над землей.
R - Количество осадков - Количество выпавших осадков за период времени, мм. При наведении курсора мыши на число - период времени, за который выпало указанное количество осадков.
R24 - Количество осадков - Количество выпавших осадков за 24 часа, мм.
S - Снежный покров - Высота снежного покрова, см. При наведении курсора мыши на число - состояние снежного покрова и степень покрытия местности в баллах.